Change the Weather History Date:

Friday, February 15, 2013

  Actual Average Record
Temperature  
Mean Temperature 49 °F 52 °F  
Max Temperature 65 °F 64 °F 81 °F (1945)
Min Temperature 32 °F 40 °F 20 °F (1943)
Degree Days  
Heating Degree Days 16 13  
Month to date heating degree days 235 208  
Since 1 July heating degree days 1157 1412  
Cooling Degree Days 0 0  
Month to date cooling degree days 0 0  
Year to date cooling degree days 27 4  
Moisture  
Dew Point 34 °F    
Average Humidity 65    
Maximum Humidity 100    
Minimum Humidity 30    
Precipitation  
Precipitation 0.00 in - 0.03 in (2009)
Month to date precipitation 4.51  
Year to date precipitation 5.83  
Sea Level Pressure  
Sea Level Pressure 30.10 in    
Wind  
Wind Speed 2 mph (NNW)    
Max Wind Speed 10 mph    
Max Gust Speed 28 mph    
Visibility 5 miles    
Events Fog    
T = Trace of Precipitation, MM = Missing Value Source: NWS Daily Summary

Daily Weather History Graph

Daily Weather History Graph

Search for Another Location

Airport or City:

Trip Planner

Search our weather history database for the weather conditions in past years. The results will help you decide how hot, cold, wet, or windy it might be!

Date:

Astronomy

Feb. 15, 2013 Rise Set
Actual Time 7:18 AM EST 6:24 PM EST
Civil Twilight 6:53 AM EST 6:48 PM EST
Nautical Twilight 6:24 AM EST 7:17 PM EST
Astronomical Twilight 5:56 AM EST 7:45 PM EST
Moon 10:18 AM EST (2/15) 11:57 PM EST (2/15)
Length of Visible Light 11h 55m
Length of Day
11h 05m
Waxing Crescent, 30% of the Moon is Illuminated
Feb 15
Waxing Crescent
Feb 17
First Quarter
Feb 25
Full
Mar 4
Last Quarter
Mar 11
New

Hourly Weather History & Observations

Time (EST) Temp. Windchill Dew Point Humidity Pressure Visibility Wind Dir Wind Speed Gust Speed Precip Events Conditions
12:53 AM 36.0 °F - 34.0 °F 93% 30.11 in 7.0 mi Calm Calm - N/A   Clear
1:53 AM 35.1 °F - 32.0 °F 89% 30.11 in 8.0 mi Calm Calm - N/A   Clear
2:09 AM 35.6 °F - 33.8 °F 93% 30.10 in 5.0 mi Calm Calm - N/A   Partly Cloudy
2:16 AM 35.6 °F - 33.8 °F 93% 30.10 in 1.8 mi Calm Calm - N/A   Scattered Clouds
2:24 AM 35.6 °F - 33.8 °F 93% 30.10 in 3.0 mi Calm Calm - N/A   Scattered Clouds
2:42 AM 33.8 °F - 32.0 °F 93% 30.10 in 1.0 mi Calm Calm - N/A   Mist
2:47 AM 33.8 °F - 32.0 °F 93% 30.10 in 0.2 mi Calm Calm - N/A Fog Fog
2:53 AM 33.1 °F - 33.1 °F 100% 30.10 in 0.5 mi Calm Calm - N/A Fog Fog
3:03 AM 33.8 °F - 33.8 °F 100% 30.10 in 1.5 mi Calm Calm - N/A   Overcast
3:13 AM 33.8 °F - 32.0 °F 93% 30.10 in 0.8 mi Calm Calm - N/A   Mist
3:17 AM 33.8 °F - 33.8 °F 100% 30.10 in 1.0 mi Calm Calm - N/A   Mist
3:25 AM 33.8 °F - 32.0 °F 93% 30.10 in 2.0 mi Calm Calm - N/A   Mostly Cloudy
3:32 AM 33.8 °F - 32.0 °F 93% 30.10 in 6.0 mi Calm Calm - N/A   Mostly Cloudy
3:47 AM 33.8 °F - 32.0 °F 93% 30.11 in 1.5 mi Calm Calm - N/A   Mostly Cloudy
3:53 AM 33.1 °F - 32.0 °F 96% 30.12 in 0.5 mi Calm Calm - N/A Fog Fog
4:14 AM 33.8 °F - 30.2 °F 87% 30.11 in 1.0 mi Calm Calm - N/A   Clear
4:20 AM 33.8 °F - 30.2 °F 87% 30.10 in 3.0 mi Calm Calm - N/A   Clear
4:53 AM 33.1 °F - 30.9 °F 92% 30.11 in 4.0 mi Calm Calm - N/A   Scattered Clouds
5:04 AM 33.8 °F - 30.2 °F 87% 30.11 in 6.0 mi Calm Calm - N/A   Mostly Cloudy
5:19 AM 33.8 °F - 32.0 °F 93% 30.11 in 1.8 mi Calm Calm - N/A   Overcast
5:29 AM 33.8 °F - 32.0 °F 93% 30.11 in 0.5 mi Calm Calm - N/A Fog Fog
5:42 AM 32.0 °F - 32.0 °F 100% 30.12 in 0.2 mi Calm Calm - N/A Fog Fog
5:53 AM 33.1 °F - 32.0 °F 96% 30.13 in 0.2 mi Calm Calm - N/A Fog Fog
6:31 AM 32.0 °F - 30.2 °F 93% 30.13 in 0.5 mi Calm Calm - N/A Fog Fog
6:40 AM 33.8 °F - 32.0 °F 93% 30.13 in 0.2 mi Calm Calm - N/A Fog Fog
6:53 AM 33.1 °F - 32.0 °F 96% 30.14 in 0.2 mi Calm Calm - N/A Fog Fog
7:53 AM 32.0 °F - 32.0 °F 100% 30.16 in 0.2 mi Calm Calm - N/A Fog Fog
8:53 AM 37.9 °F - 37.0 °F 97% 30.16 in 2.0 mi Calm Calm - N/A   Scattered Clouds
9:07 AM 41.0 °F - 39.2 °F 93% 30.16 in 7.0 mi Calm Calm - N/A   Clear
9:53 AM 48.9 °F - 42.1 °F 77% 30.17 in 7.0 mi Calm Calm - N/A   Clear
10:53 AM 57.0 °F - 37.9 °F 49% 30.16 in 10.0 mi NNE 5.8 mph - N/A   Clear
11:53 AM 59.0 °F - 36.0 °F 42% 30.15 in 10.0 mi ENE 9.2 mph - N/A   Clear
12:53 PM 62.1 °F - 34.0 °F 35% 30.12 in 10.0 mi Variable 4.6 mph - N/A   Clear
1:53 PM 62.1 °F - 33.1 °F 34% 30.08 in 10.0 mi Calm Calm - N/A   Clear
2:53 PM 64.0 °F - 34.0 °F 33% 30.04 in 10.0 mi North 5.8 mph - N/A   Clear
3:53 PM 64.0 °F - 32.0 °F 30% 30.04 in 10.0 mi WNW 6.9 mph - N/A   Clear
4:53 PM 64.9 °F - 33.1 °F 31% 30.03 in 10.0 mi Calm Calm - N/A   Clear
5:53 PM 63.0 °F - 34.0 °F 34% 30.03 in 10.0 mi NW 3.5 mph - N/A   Clear
6:53 PM 55.0 °F - 39.0 °F 55% 30.03 in 10.0 mi Calm Calm - N/A   Clear
7:53 PM 48.0 °F - 39.0 °F 71% 30.04 in 10.0 mi Calm Calm - N/A   Clear
8:53 PM 46.9 °F - 39.0 °F 74% 30.04 in 10.0 mi Calm Calm - N/A   Clear
9:53 PM 45.0 °F - 39.0 °F 80% 30.05 in 10.0 mi Calm Calm - N/A   Clear
10:53 PM 45.0 °F 43.5 °F 39.0 °F 80% 30.04 in 10.0 mi WSW 3.5 mph - N/A   Clear
11:53 PM 44.1 °F - 39.9 °F 85% 30.03 in 10.0 mi Calm Calm - N/A   Clear